When you browse on this site, cookies collect data to enhance your experience and personalize the content and advertising you see.
Visit our Privacy Policy to learn more. By continuing to use the site, you agree to this use of cookies and data.
  • In Lithuania
  • List of Countries
  • For 7 days
  • Water Temperature
  • Weather Map
  • Weather Widgets
  • user-avatar
    Login

    Hourly Weather Otrada

    Today, 17 August, Saturday

    Time Temperature Precipitation Wind Pressure Humidity
    00:00 +17°C° 0.1 mm 6 mps 739 mmHg 96%
    01:00 +19°C° 0 mm 6 mps 739 mmHg 96%
    02:00 +19°C° 0 mm 5 mps 739 mmHg 96%
    03:00 +19°C° 0 mm 5 mps 739 mmHg 96%
    04:00 +19°C° 0 mm 4 mps 739 mmHg 96%
    05:00 +19°C° 0 mm 4 mps 739 mmHg 96%
    06:00 +19°C° 0 mm 3 mps 739 mmHg 96%
    07:00 +20°C° 0 mm 4 mps 739 mmHg 93%
    08:00 +20°C° 0 mm 4 mps 739 mmHg 91%
    09:00 +21°C° 0 mm 4 mps 739 mmHg 89%
    10:00 +21°C° 0.3 mm 4 mps 739 mmHg 88%
    11:00 +21°C° 0.3 mm 4 mps 739 mmHg 87%
    12:00 +21°C° 0.3 mm 4 mps 739 mmHg 86%
    13:00 +21°C° 1.8 mm 4 mps 739 mmHg 89%
    14:00 +20°C° 1.8 mm 4 mps 739 mmHg 92%
    15:00 +19°C° 1.8 mm 4 mps 739 mmHg 95%
    16:00 +19°C° 2.7 mm 3 mps 738 mmHg 95%
    17:00 +19°C° 2.7 mm 3 mps 738 mmHg 95%
    18:00 +18°C° 2.7 mm 3 mps 738 mmHg 96%
    19:00 +18°C° 1.3 mm 3 mps 738 mmHg 96%
    20:00 +18°C° 1.3 mm 3 mps 737 mmHg 96%
    21:00 +18°C° 1.3 mm 4 mps 737 mmHg 96%
    22:00 +18°C° 0.1 mm 3 mps 737 mmHg 96%
    23:00 +18°C° 0.1 mm 3 mps 737 mmHg 96%

    Tomorrow, 18 August, Sunday

    Time Temperature Precipitation Wind Pressure Humidity
    00:00 +17°C° 0.1 mm 3 mps 737 mmHg 97%
    01:00 +17°C° 0 mm 2 mps 737 mmHg 97%
    02:00 +17°C° 0 mm 2 mps 737 mmHg 97%
    03:00 +16°C° 0 mm 2 mps 737 mmHg 97%
    04:00 +16°C° 0 mm 2 mps 737 mmHg 97%
    05:00 +16°C° 0 mm 2 mps 738 mmHg 97%
    06:00 +16°C° 0 mm 2 mps 738 mmHg 97%
    07:00 +17°C° 0 mm 2 mps 738 mmHg 93%
    08:00 +19°C° 0 mm 2 mps 738 mmHg 89%
    09:00 +20°C° 0 mm 2 mps 739 mmHg 86%
    10:00 +21°C° 0 mm 2 mps 739 mmHg 81%
    11:00 +23°C° 0 mm 2 mps 739 mmHg 76%
    12:00 +24°C° 0 mm 2 mps 740 mmHg 72%
    13:00 +24°C° 0.5 mm 2 mps 740 mmHg 71%
    14:00 +24°C° 0.5 mm 2 mps 740 mmHg 71%
    15:00 +25°C° 0.5 mm 2 mps 740 mmHg 71%
    16:00 +24°C° 0.5 mm 3 mps 740 mmHg 74%
    17:00 +22°C° 0.5 mm 3 mps 741 mmHg 77%
    18:00 +22°C° 0.5 mm 3 mps 741 mmHg 80%
    19:00 +20°C° 0 mm 3 mps 741 mmHg 84%
    20:00 +19°C° 0 mm 3 mps 742 mmHg 88%
    21:00 +17°C° 0 mm 3 mps 742 mmHg 92%
    22:00 +17°C° 0 mm 3 mps 742 mmHg 93%
    23:00 +16°C° 0 mm 3 mps 743 mmHg 94%

    Day after tomorrow, 19 August, Monday

    Time Temperature Precipitation Wind Pressure Humidity
    00:00 +15°C° 0 mm 2 mps 743 mmHg 95%
    01:00 +14°C° 0 mm 3 mps 744 mmHg 95%
    02:00 +13°C° 0 mm 3 mps 744 mmHg 95%
    03:00 +13°C° 0 mm 3 mps 744 mmHg 95%
    04:00 +14°C° 0 mm 2 mps 745 mmHg 96%
    05:00 +14°C° 0 mm 2 mps 745 mmHg 96%
    06:00 +14°C° 0 mm 2 mps 745 mmHg 97%
    07:00 +16°C° 0 mm 2 mps 746 mmHg 91%
    08:00 +18°C° 0 mm 1 mps 746 mmHg 85%
    09:00 +20°C° 0 mm 1 mps 747 mmHg 79%
    10:00 +21°C° 0 mm 1 mps 747 mmHg 74%
    11:00 +22°C° 0 mm 1 mps 747 mmHg 68%
    12:00 +23°C° 0 mm 1 mps 747 mmHg 63%
    13:00 +24°C° 0 mm 1 mps 747 mmHg 61%
    14:00 +25°C° 0 mm 1 mps 748 mmHg 58%
    15:00 +25°C° 0 mm 1 mps 748 mmHg 56%
    16:00 +25°C° 0 mm 1 mps 748 mmHg 59%
    17:00 +23°C° 0 mm 0 mps 748 mmHg 63%
    18:00 +23°C° 0 mm 0 mps 748 mmHg 66%
    19:00 +21°C° 0 mm 0 mps 748 mmHg 69%
    20:00 +20°C° 0 mm 0 mps 748 mmHg 72%
    21:00 +20°C° 0 mm 1 mps 748 mmHg 76%
    22:00 +19°C° 0 mm 1 mps 748 mmHg 78%
    23:00 +19°C° 0 mm 1 mps 749 mmHg 80%

    20 August, Tuesday

    Time Temperature Precipitation Wind Pressure Humidity
    00:00 +19°C° 0 mm 1 mps 749 mmHg 82%
    01:00 +18°C° 0 mm 1 mps 749 mmHg 83%
    02:00 +16°C° 0 mm 0 mps 749 mmHg 84%
    03:00 +16°C° 0 mm 0 mps 749 mmHg 85%
    04:00 +18°C° 0 mm 1 mps 749 mmHg 86%
    05:00 +18°C° 0 mm 1 mps 749 mmHg 86%
    06:00 +18°C° 0 mm 1 mps 749 mmHg 86%
    07:00 +19°C° 0 mm 1 mps 749 mmHg 82%
    08:00 +20°C° 0 mm 1 mps 749 mmHg 77%
    09:00 +22°C° 0 mm 1 mps 750 mmHg 72%
    10:00 +23°C° 0 mm 1 mps 750 mmHg 68%
    11:00 +24°C° 0 mm 1 mps 749 mmHg 65%
    12:00 +25°C° 0 mm 1 mps 749 mmHg 61%
    13:00 +26°C° 0 mm 2 mps 749 mmHg 59%
    14:00 +26°C° 0 mm 2 mps 749 mmHg 57%
    15:00 +26°C° 0 mm 2 mps 749 mmHg 55%
    16:00 +26°C° 0 mm 2 mps 749 mmHg 59%
    17:00 +26°C° 0 mm 2 mps 749 mmHg 63%
    18:00 +25°C° 0 mm 2 mps 749 mmHg 67%
    19:00 +24°C° 0 mm 2 mps 749 mmHg 70%
    20:00 +22°C° 0 mm 1 mps 749 mmHg 73%
    21:00 +21°C° 0 mm 1 mps 749 mmHg 76%
    22:00 +20°C° 0 mm 1 mps 749 mmHg 76%
    23:00 +20°C° 0 mm 1 mps 749 mmHg 77%

    21 August, Wednesday

    Time Temperature Precipitation Wind Pressure Humidity
    00:00 +20°C° 0 mm 1 mps 749 mmHg 77%
    01:00 +19°C° 0 mm 1 mps 749 mmHg 79%
    02:00 +19°C° 0 mm 1 mps 749 mmHg 80%
    03:00 +17°C° 0 mm 2 mps 749 mmHg 81%
    04:00 +17°C° 0 mm 2 mps 749 mmHg 82%
    05:00 +17°C° 0 mm 2 mps 749 mmHg 83%
    06:00 +17°C° 0 mm 2 mps 748 mmHg 85%
    07:00 +18°C° 0 mm 2 mps 749 mmHg 81%
    08:00 +20°C° 0 mm 3 mps 749 mmHg 78%
    09:00 +21°C° 0 mm 3 mps 749 mmHg 75%
    10:00 +22°C° 0 mm 3 mps 749 mmHg 71%
    11:00 +25°C° 0 mm 3 mps 749 mmHg 67%
    12:00 +26°C° 0 mm 3 mps 749 mmHg 62%
    13:00 +26°C° 0 mm 4 mps 748 mmHg 62%
    14:00 +27°C° 0 mm 4 mps 748 mmHg 63%
    15:00 +27°C° 0 mm 4 mps 748 mmHg 63%
    16:00 +27°C° 0 mm 4 mps 747 mmHg 67%
    17:00 +27°C° 0 mm 4 mps 747 mmHg 71%
    18:00 +26°C° 0 mm 3 mps 747 mmHg 76%
    19:00 +25°C° 0 mm 3 mps 747 mmHg 80%
    20:00 +24°C° 0 mm 3 mps 747 mmHg 85%
    21:00 +22°C° 0 mm 3 mps 746 mmHg 90%
    22:00 +21°C° 0 mm 3 mps 746 mmHg 90%
    23:00 +21°C° 0 mm 3 mps 746 mmHg 90%

    22 August, Thursday

    Time Temperature Precipitation Wind Pressure Humidity
    00:00 +21°C° 0 mm 3 mps 746 mmHg 90%
    01:00 +20°C° 0 mm 3 mps 746 mmHg 90%
    02:00 +20°C° 0 mm 3 mps 746 mmHg 90%
    03:00 +20°C° 0 mm 3 mps 745 mmHg 90%
    04:00 +19°C° 0 mm 3 mps 745 mmHg 91%
    05:00 +19°C° 0 mm 3 mps 745 mmHg 91%
    06:00 +19°C° 0 mm 2 mps 745 mmHg 91%
    07:00 +21°C° 0 mm 3 mps 745 mmHg 86%
    08:00 +22°C° 0 mm 3 mps 745 mmHg 82%
    09:00 +24°C° 0 mm 3 mps 745 mmHg 77%
    10:00 +26°C° 0 mm 2 mps 745 mmHg 72%
    11:00 +27°C° 0 mm 2 mps 745 mmHg 68%
    12:00 +28°C° 0 mm 2 mps 745 mmHg 64%
    13:00 +29°C° 0 mm 2 mps 745 mmHg 63%
    14:00 +29°C° 0 mm 2 mps 745 mmHg 62%
    15:00 +30°C° 0 mm 2 mps 745 mmHg 61%
    16:00 +29°C° 0.1 mm 3 mps 745 mmHg 66%
    17:00 +28°C° 0.1 mm 3 mps 745 mmHg 71%
    18:00 +27°C° 0.1 mm 3 mps 746 mmHg 76%
    19:00 +25°C° 0 mm 4 mps 746 mmHg 79%
    20:00 +22°C° 0 mm 5 mps 746 mmHg 82%
    21:00 +20°C° 0 mm 6 mps 747 mmHg 85%
    22:00 +20°C° 0 mm 6 mps 747 mmHg 84%
    23:00 +19°C° 0 mm 5 mps 747 mmHg 84%
    Show more